GW1000 Weather Reports


Display with metric or nautical units.
time (UTC)temp
F
wind
direction
speed
MPH
gust
MPH
rain 1hr
in
rain 24hr
in
rain mn
in
humidity
%
barometer
mb
20260903113246 88 272 5.0 9.0 0.00 0.00 0.00 62 1004.2
20260903112742 89 309 11.0 20.0 0.00 0.00 0.00 61 1004.3
20260903112238 89 246 9.0 11.0 0.00 0.00 0.00 60 1004.3
20260903111736 89 354 4.0 8.0 0.00 0.00 0.00 60 1004.2
20260903111231 89 299 3.0 15.0 0.00 0.00 0.00 59 1004.5
20260903110728 89 257 5.0 14.0 0.00 0.00 0.00 59 1004.3
20260903110223 89 277 9.0 14.0 0.00 0.00 0.00 59 1004.4
20260903105723 89 327 7.0 13.0 0.00 0.00 0.00 60 1004.7
20260903105218 90 302 7.0 10.0 0.00 0.00 0.00 58 1004.6
20260903104717 89 333 3.0 13.0 0.00 0.00 0.00 58 1004.6
20260903104213 89 354 7.0 14.0 0.00 0.00 0.00 59 1004.8
20260903103708 89 20 5.0 7.0 0.00 0.00 0.00 59 1004.7
20260903103204 89 264 3.0 11.0 0.00 0.00 0.00 59 1004.5
20260903102700 89 272 10.0 10.0 0.00 0.00 0.00 58 1004.6
20260903102154 88 292 7.0 9.0 0.00 0.00 0.00 60 1004.7
20260903101653 89 2 6.0 13.0 0.00 0.00 0.00 59 1004.6
20260903101149 89 225 5.0 7.0 0.00 0.00 0.00 59 1004.7
20260903100643 90 280 8.0 13.0 0.00 0.00 0.00 57 1004.9
20260903100143 89 260 12.0 14.0 0.00 0.00 0.00 58 1004.9
20260903095641 89 277 11.0 14.0 0.00 0.00 0.00 57 1004.9
20260903095141 89 269 8.0 14.0 0.00 0.00 0.00 57 1004.7
20260903094636 89 249 8.0 13.0 0.00 0.00 0.00 57 1005.0
20260903094131 89 309 7.0 10.0 0.00 0.00 0.00 57 1004.9
20260903093626 88 331 4.0 10.0 0.00 0.00 0.00 58 1005.2
20260903093121 88 284 9.0 14.0 0.00 0.00 0.00 59 1004.9
20260903092621 89 249 3.0 7.0 0.00 0.00 0.00 59 1004.8
20260903092116 89 233 4.0 11.0 0.00 0.00 0.00 59 1005.0
20260903091614 88 281 8.0 10.0 0.00 0.00 0.00 59 1005.1
20260903091109 89 228 5.0 14.0 0.00 0.00 0.00 60 1005.2
20260903090605 89 246 5.0 9.0 0.00 0.00 0.00 60 1005.0
20260903085602 89 336 5.0 7.0 0.00 0.00 0.00 59 1005.1
20260903085058 88 256 2.0 5.0 0.00 0.00 0.00 62 1005.1
20260903084556 87 250 7.0 10.0 0.00 0.00 0.00 62 1005.2
20260903084050 87 276 7.0 10.0 0.00 0.00 0.00 62 1005.4
20260903083547 89 246 6.0 10.0 0.00 0.00 0.00 60 1005.4
20260903083046 87 273 1.0 3.0 0.00 0.00 0.00 62 1005.3
20260903082540 87 200 5.0 6.0 0.00 0.00 0.00 62 1005.4
20260903082036 87 273 3.0 6.0 0.00 0.00 0.00 62 1005.3
20260903081531 88 282 6.0 7.0 0.00 0.00 0.00 62 1005.4
20260903081027 88 267 2.0 5.0 0.00 0.00 0.00 61 1005.4
20260903080523 87 282 3.0 5.0 0.00 0.00 0.00 61 1005.8
20260903080020 86 308 3.0 5.0 0.00 0.00 0.00 63 1005.6
20260903075514 86 277 2.0 7.0 0.00 0.00 0.00 64 1005.7
20260903075009 86 15 3.0 3.0 0.00 0.00 0.00 63 1005.5
20260903074509 87 274 6.0 7.0 0.00 0.00 0.00 62 1005.5
20260903074003 86 350 2.0 2.0 0.00 0.00 0.00 61 1005.8
20260903073458 85 346 4.0 7.0 0.00 0.00 0.00 63 1005.8
20260903072954 85 292 7.0 7.0 0.00 0.00 0.00 63 1005.8
20260903072450 86 132 0.0 5.0 0.00 0.00 0.00 64 1005.8
20260903071947 85 322 2.0 6.0 0.00 0.00 0.00 65 1005.7
20260903071442 84 353 3.0 6.0 0.00 0.00 0.00 66 1005.7
20260903070938 84 302 3.0 5.0 0.00 0.00 0.00 68 1005.8
20260903070432 85 295 5.0 8.0 0.00 0.00 0.00 68 1005.9
20260903065926 85 271 2.0 6.0 0.00 0.00 0.00 67 1005.8
20260903065421 84 351 0.0 1.0 0.00 0.00 0.00 69 1006.0
20260903064920 84 340 5.0 7.0 0.00 0.00 0.00 68 1006.0
20260903064415 84 168 1.0 3.0 0.00 0.00 0.00 69 1006.1
20260903063911 82 295 1.0 2.0 0.00 0.00 0.00 71 1006.2
20260903063406 82 284 3.0 5.0 0.00 0.00 0.00 72 1006.1
20260903062901 82 245 3.0 5.0 0.00 0.00 0.00 72 1006.2
20260903062356 82 275 3.0 6.0 0.00 0.00 0.00 73 1006.1
20260903061852 83 242 3.0 6.0 0.00 0.00 0.00 72 1006.1
20260903061351 84 167 2.0 3.0 0.00 0.00 0.00 71 1006.2
20260903060848 84 162 3.0 5.0 0.00 0.00 0.00 72 1006.2
20260903060347 83 198 1.0 2.0 0.00 0.00 0.00 74 1006.1
20260903055845 82 89 0.0 3.0 0.00 0.00 0.00 76 1005.8
20260903055343 81 110 1.0 2.0 0.00 0.00 0.00 78 1005.8
20260903054838 80 212 3.0 5.0 0.00 0.00 0.00 79 1006.0
20260903054338 81 267 4.0 5.0 0.00 0.00 0.00 78 1006.3
20260903053835 81 278 3.0 5.0 0.00 0.00 0.00 78 1006.2
20260903053329 82 252 4.0 6.0 0.00 0.00 0.00 78 1006.2
20260903052826 81 205 2.0 3.0 0.00 0.00 0.00 79 1006.2
20260903052321 80 217 3.0 5.0 0.00 0.00 0.00 80 1006.2
20260903051816 80 236 3.0 6.0 0.00 0.00 0.00 81 1006.2
20260903051311 80 238 2.0 3.0 0.00 0.00 0.00 80 1006.2
20260903050807 80 84 0.0 2.0 0.00 0.00 0.00 81 1006.3
20260903050306 80 187 3.0 3.0 0.00 0.00 0.00 81 1006.2
20260903045800 80 72 0.0 1.0 0.00 0.00 0.00 82 1006.2
20260903045251 79 71 0.0 1.0 0.00 0.00 0.00 83 1006.4
20260903044747 78 55 0.0 1.0 0.00 0.00 0.00 84 1006.4
20260903044242 78 79 1.0 1.0 0.00 0.00 0.00 85 1006.2
20260903043738 77 31 0.0 0.0 0.00 0.00 0.00 85 1006.1
20260903043238 77 32 0.0 0.0 0.00 0.00 0.00 86 1006.2
20260903042737 76 57 1.0 1.0 0.00 0.00 0.00 86 1006.3
20260903042232 76 64 0.0 1.0 0.00 0.00 0.00 86 1006.3
20260903041728 76 62 0.0 1.0 0.00 0.00 0.00 86 1006.2
20260903041224 76 54 1.0 1.0 0.00 0.00 0.00 86 1006.3
20260903040719 75 77 0.0 2.0 0.00 0.00 0.00 87 1006.3
20260903040214 75 55 0.0 0.0 0.00 0.00 0.00 87 1006.3
20260903035709 75 34 0.0 0.0 0.00 0.00 0.00 87 1006.3
20260903035159 75 46 0.0 0.0 0.00 0.00 0.00 87 1006.2
20260903034654 75 53 0.0 0.0 0.00 0.00 0.00 87 1006.0
20260903034149 75 79 1.0 1.0 0.00 0.00 0.00 87 1006.1
20260903033644 75 93 1.0 2.0 0.00 0.00 0.00 87 1006.0
20260903033144 75 78 1.0 1.0 0.00 0.00 0.00 87 1006.2
20260903032639 75 76 0.0 0.0 0.00 0.00 0.00 86 1006.0
20260903032135 75 80 0.0 1.0 0.00 0.00 0.00 87 1005.9
20260903031630 75 93 0.0 1.0 0.00 0.00 0.00 86 1006.1
20260903031130 75 96 1.0 1.0 0.00 0.00 0.00 86 1005.8
20260903030626 75 63 0.0 0.0 0.00 0.00 0.00 86 1005.9
20260903030121 75 63 0.0 0.0 0.00 0.00 0.00 86 1006.1
20260903025617 75 71 1.0 2.0 0.00 0.00 0.00 86 1005.7
20260903025113 75 56 0.0 1.0 0.00 0.00 0.00 86 1005.6
20260903024612 75 69 0.0 0.0 0.00 0.00 0.00 86 1005.6
20260903024106 75 68 0.0 0.0 0.00 0.00 0.00 86 1005.8
20260903023602 75 57 0.0 0.0 0.00 0.00 0.00 86 1005.9
20260903023051 76 118 2.0 2.0 0.00 0.00 0.00 86 1005.8
20260903022551 76 71 0.0 1.0 0.00 0.00 0.00 86 1005.7
20260903022050 76 100 2.0 2.0 0.00 0.00 0.00 85 1005.8
20260903021544 76 92 1.0 2.0 0.00 0.00 0.00 85 1005.7
20260903021039 76 62 1.0 2.0 0.00 0.00 0.00 85 1005.6
20260903020535 76 76 0.0 1.0 0.00 0.00 0.00 85 1005.7
20260903020035 76 77 1.0 1.0 0.00 0.00 0.00 85 1005.6
20260903015531 76 87 0.0 1.0 0.00 0.00 0.00 85 1005.7
20260903015026 76 74 0.0 1.0 0.00 0.00 0.00 85 1005.6
20260903014525 76 46 0.0 0.0 0.00 0.00 0.00 84 1005.6
20260903014020 76 41 0.0 0.0 0.00 0.00 0.00 85 1005.9
20260903013519 76 54 0.0 0.0 0.00 0.00 0.00 84 1005.9
20260903013014 76 41 0.0 1.0 0.00 0.00 0.00 84 1005.7
20260903012514 77 51 1.0 2.0 0.00 0.00 0.00 84 1005.6
20260903012012 77 48 0.0 1.0 0.00 0.00 0.00 84 1005.5
20260903011507 77 49 0.0 1.0 0.00 0.00 0.00 84 1005.4
20260903011002 77 51 0.0 0.0 0.00 0.00 0.00 84 1005.4
20260903010457 77 22 1.0 1.0 0.00 0.00 0.00 84 1005.3
20260903005955 77 31 0.0 0.0 0.00 0.00 0.00 84 1005.7
20260903005450 77 150 1.0 3.0 0.00 0.00 0.00 84 1005.5
20260903004946 77 114 3.0 3.0 0.00 0.00 0.00 84 1005.5
20260903004441 77 88 2.0 2.0 0.00 0.00 0.00 83 1005.5
20260903003937 77 69 0.0 2.0 0.00 0.00 0.00 83 1005.5
20260903003436 77 87 1.0 2.0 0.00 0.00 0.00 83 1005.6
20260903002931 77 38 0.0 2.0 0.00 0.00 0.00 83 1005.7
20260903002421 77 34 1.0 1.0 0.00 0.00 0.00 83 1005.8
20260903001920 77 32 0.0 1.0 0.00 0.00 0.00 83 1005.6
20260903001415 77 14 1.0 1.0 0.00 0.00 0.00 83 1005.7
20260903000915 77 39 0.0 1.0 0.00 0.00 0.00 83 1005.7
20260903000410 77 39 0.0 0.0 0.00 0.00 0.00 83 1005.7
20260902235908 77 58 0.0 0.0 0.00 0.00 0.00 83 1005.8
20260902235403 78 67 0.0 0.0 0.00 0.00 0.00 83 1005.9
20260902234903 77 77 0.0 1.0 0.00 0.00 0.00 83 1005.7
20260902234358 77 44 0.0 0.0 0.00 0.00 0.00 83 1005.9
20260902233857 77 49 0.0 1.0 0.00 0.00 0.00 83 1005.7
20260902233351 77 69 0.0 0.0 0.00 0.00 0.00 83 1005.8
20260902232850 77 35 0.0 0.0 0.00 0.00 0.00 83 1005.8
20260902232344 77 48 0.0 0.0 0.00 0.00 0.00 83 1005.8
20260902231839 77 49 0.0 0.0 0.00 0.00 0.00 83 1005.8
20260902231334 77 49 0.0 0.0 0.00 0.00 0.00 83 1005.8
20260902230828 77 49 0.0 0.0 0.00 0.00 0.00 82 1005.7
20260902230328 78 65 0.0 1.0 0.00 0.00 0.00 82 1005.8
20260902225822 78 74 1.0 1.0 0.00 0.00 0.00 82 1005.8
20260902225317 78 59 0.0 1.0 0.00 0.00 0.00 82 1005.6
20260902224816 78 40 1.0 1.0 0.00 0.00 0.00 82 1005.9
20260902224311 78 68 0.0 1.0 0.00 0.00 0.00 82 1005.9
20260902223807 78 77 1.0 1.0 0.00 0.00 0.00 82 1005.9
20260902223302 78 46 0.0 1.0 0.00 0.00 0.00 82 1005.9
20260902222800 78 34 0.0 0.0 0.00 0.00 0.00 83 1006.1
20260902222254 78 40 0.0 0.0 0.00 0.00 0.00 82 1006.0
20260902221748 78 41 0.0 0.0 0.00 0.00 0.00 82 1006.0
20260902221248 78 9 0.0 1.0 0.00 0.00 0.00 82 1005.8
20260902220738 78 57 0.0 1.0 0.00 0.00 0.00 82 1005.9
20260902220238 78 55 0.0 0.0 0.00 0.00 0.00 82 1006.0
20260902215733 78 12 1.0 1.0 0.00 0.00 0.00 82 1006.1
20260902215229 78 79 0.0 0.0 0.00 0.00 0.00 82 1006.1
20260902214724 78 80 0.0 1.0 0.00 0.00 0.00 82 1006.0
20260902214223 78 62 0.0 0.0 0.00 0.00 0.00 82 1006.1
20260902213719 78 62 0.0 0.0 0.00 0.00 0.00 82 1006.1
20260902213218 78 64 0.0 0.0 0.00 0.00 0.00 82 1006.0
20260902212718 78 59 0.0 1.0 0.00 0.00 0.00 82 1005.9
20260902212214 78 77 0.0 0.0 0.00 0.00 0.00 82 1006.2
20260902211710 78 77 0.0 0.0 0.00 0.00 0.00 82 1006.1
20260902211206 78 80 2.0 2.0 0.00 0.00 0.00 82 1006.2
20260902210701 78 51 1.0 1.0 0.00 0.00 0.00 82 1006.2
20260902210156 78 90 1.0 1.0 0.00 0.00 0.00 82 1006.5
20260902205654 78 56 0.0 0.0 0.00 0.00 0.00 81 1006.4
20260902205149 78 55 0.0 1.0 0.00 0.00 0.00 81 1006.2
20260902204644 78 78 1.0 1.0 0.00 0.00 0.00 82 1006.1
20260902204138 78 37 0.0 0.0 0.00 0.00 0.00 81 1006.2
20260902203634 78 37 0.0 0.0 0.00 0.00 0.00 81 1006.2
20260902203134 78 37 0.0 0.0 0.00 0.00 0.00 81 1006.1
20260902202629 79 46 0.0 0.0 0.00 0.00 0.00 81 1006.2
20260902202126 79 49 0.0 0.0 0.00 0.00 0.00 81 1006.2
20260902201622 79 49 0.0 0.0 0.00 0.00 0.00 81 1006.2
20260902201121 79 50 0.0 1.0 0.00 0.00 0.00 80 1006.2
20260902200616 79 51 0.0 0.0 0.00 0.00 0.00 80 1006.1
20260902200112 79 51 0.0 0.0 0.00 0.00 0.00 80 1006.1
20260902195608 79 51 0.0 0.0 0.00 0.00 0.00 80 1006.2
20260902195106 80 54 0.0 0.0 0.00 0.00 0.00 80 1006.3
20260902194600 80 60 0.0 0.0 0.00 0.00 0.00 80 1006.4
20260902194056 80 64 0.0 0.0 0.00 0.00 0.00 80 1006.5
20260902193552 80 356 0.0 0.0 0.00 0.00 0.00 80 1006.5
20260902193051 80 355 0.0 0.0 0.00 0.00 0.00 80 1006.6
20260902192550 80 337 0.0 1.0 0.00 0.00 0.00 80 1006.6
20260902192048 80 337 0.0 1.0 0.00 0.00 0.00 80 1006.5
20260902191544 80 333 0.0 1.0 0.00 0.00 0.00 80 1006.4
20260902191038 80 9 0.0 0.0 0.00 0.00 0.00 80 1006.3
20260902190534 80 9 0.0 1.0 0.00 0.00 0.00 79 1006.5
20260902190029 80 9 0.0 0.0 0.00 0.00 0.00 79 1006.4
20260902185525 80 9 0.0 1.0 0.00 0.00 0.00 79 1006.5
20260902185021 80 22 0.0 1.0 0.00 0.00 0.00 79 1006.3
20260902184515 80 23 0.0 0.0 0.00 0.00 0.00 79 1006.4
20260902184011 80 10 0.0 0.0 0.00 0.00 0.00 79 1006.4
20260902183507 80 24 0.0 0.0 0.00 0.00 0.00 79 1006.4
20260902183003 80 354 0.0 1.0 0.00 0.00 0.00 79 1006.4
20260902182459 80 352 1.0 1.0 0.00 0.00 0.00 79 1006.4
20260902181954 80 4 0.0 1.0 0.00 0.00 0.00 79 1006.5
20260902181450 80 4 0.0 1.0 0.00 0.00 0.00 79 1006.3
20260902180944 80 340 1.0 1.0 0.00 0.00 0.00 79 1006.3
20260902180440 80 353 1.0 1.0 0.00 0.00 0.00 79 1006.2
20260902175936 80 0 1.0 1.0 0.00 0.00 0.00 78 1006.4
20260902175431 81 3 1.0 1.0 0.00 0.00 0.00 78 1006.3
20260902174926 81 356 1.0 2.0 0.00 0.00 0.00 78 1006.0
20260902174423 81 346 1.0 2.0 0.00 0.00 0.00 78 1006.2
20260902173918 81 336 1.0 2.0 0.00 0.00 0.00 77 1006.2
20260902173417 81 2 2.0 2.0 0.00 0.00 0.00 77 1006.1
20260902172913 82 1 2.0 2.0 0.00 0.00 0.00 77 1006.2
20260902172412 82 336 3.0 3.0 0.00 0.00 0.00 76 1006.2
20260902171907 82 30 1.0 2.0 0.00 0.00 0.00 76 1005.9
20260902171402 82 27 2.0 3.0 0.00 0.00 0.00 76 1006.0
20260902170858 82 343 4.0 6.0 0.00 0.00 0.00 76 1006.1
20260902170353 82 0 2.0 6.0 0.00 0.00 0.00 77 1005.9
20260902165848 82 344 5.0 7.0 0.00 0.00 0.00 76 1005.7
20260902165347 82 354 5.0 7.0 0.00 0.00 0.00 75 1005.8
20260902164843 82 18 2.0 6.0 0.00 0.00 0.00 75 1005.6
20260902164337 82 2 3.0 5.0 0.00 0.00 0.00 75 1005.7
20260902163837 82 43 3.0 8.0 0.00 0.00 0.00 75 1005.5
20260902163337 83 28 2.0 5.0 0.00 0.00 0.00 74 1005.5
20260902162835 83 50 2.0 6.0 0.00 0.00 0.00 74 1005.5
20260902162330 83 347 5.0 7.0 0.00 0.00 0.00 73 1005.5
20260902161825 83 3 4.0 7.0 0.00 0.00 0.00 73 1005.5
20260902161321 84 35 2.0 6.0 0.00 0.00 0.00 72 1005.3
20260902160817 84 13 5.0 7.0 0.00 0.00 0.00 71 1005.5
20260902160312 84 13 3.0 7.0 0.00 0.00 0.00 71 1005.5
20260902155810 84 339 4.0 5.0 0.00 0.00 0.00 71 1005.5
20260902155309 84 7 5.0 8.0 0.00 0.00 0.00 70 1005.4
20260902154804 84 12 5.0 8.0 0.00 0.00 0.00 70 1005.6
20260902154300 85 344 7.0 9.0 0.00 0.00 0.00 69 1005.5
20260902153758 85 42 5.0 7.0 0.00 0.00 0.00 68 1005.3
20260902153253 85 359 5.0 8.0 0.00 0.00 0.00 67 1005.6
20260902152749 86 5 3.0 5.0 0.00 0.00 0.00 66 1005.5
20260902152245 86 342 6.0 11.0 0.00 0.00 0.00 66 1005.5
20260902151745 86 347 5.0 8.0 0.00 0.00 0.00 66 1005.3
20260902151240 86 344 8.0 9.0 0.00 0.00 0.00 65 1005.4
20260902150734 87 2 5.0 8.0 0.00 0.00 0.00 64 1005.6
20260902150231 87 349 5.0 8.0 0.00 0.00 0.00 63 1005.6
20260902145730 87 14 4.0 8.0 0.00 0.00 0.00 64 1005.4
20260902145225 87 327 7.0 11.0 0.00 0.00 0.00 63 1005.3
20260902144721 87 347 5.0 7.0 0.00 0.00 0.00 62 1005.4
20260902144216 88 30 9.0 11.0 0.00 0.00 0.00 61 1005.3
20260902143711 88 357 4.0 7.0 0.00 0.00 0.00 61 1005.2
20260902143206 87 352 3.0 8.0 0.00 0.00 0.00 62 1005.2
20260902142705 87 329 11.0 14.0 0.00 0.00 0.00 62 1005.2
20260902142157 87 5 6.0 10.0 0.00 0.00 0.00 63 1005.1
20260902141652 87 338 7.0 9.0 0.00 0.00 0.00 63 1005.1
20260902141147 88 351 11.0 13.0 0.00 0.00 0.00 61 1005.2
20260902140642 88 335 7.0 11.0 0.00 0.00 0.00 61 1005.1
20260902140137 88 324 9.0 13.0 0.00 0.00 0.00 61 1005.3
20260902135636 88 303 8.0 13.0 0.00 0.00 0.00 61 1005.3
20260902135132 88 335 10.0 14.0 0.00 0.00 0.00 60 1005.4
20260902134627 88 290 7.0 11.0 0.00 0.00 0.00 60 1005.3
20260902134121 88 341 8.0 15.0 0.00 0.00 0.00 60 1005.1
20260902133616 88 332 8.0 15.0 0.00 0.00 0.00 60 1005.4
20260902133111 89 303 9.0 14.0 0.00 0.00 0.00 58 1005.1
20260902132606 88 341 7.0 9.0 0.00 0.00 0.00 60 1005.1
20260902132101 89 311 11.0 14.0 0.00 0.00 0.00 59 1005.2
20260902131557 89 328 5.0 16.0 0.00 0.00 0.00 58 1005.2
20260902131052 89 9 7.0 9.0 0.00 0.00 0.00 59 1005.3
20260902130548 89 355 11.0 16.0 0.00 0.00 0.00 60 1005.3
20260902130043 89 348 6.0 10.0 0.00 0.00 0.00 59 1005.2
20260902125539 89 348 9.0 14.0 0.00 0.00 0.00 60 1005.4
20260902125034 90 348 7.0 8.0 0.00 0.00 0.00 58 1005.1
20260902124530 88 263 13.0 17.0 0.00 0.00 0.00 60 1005.3
20260902124025 88 322 9.0 15.0 0.00 0.00 0.00 60 1005.4
20260902123521 89 335 7.0 15.0 0.00 0.00 0.00 60 1005.4
20260902123021 89 290 8.0 15.0 0.00 0.00 0.00 61 1005.3
20260902122520 88 351 14.0 16.0 0.00 0.00 0.00 61 1005.5
20260902122015 89 312 14.0 16.0 0.00 0.00 0.00 59 1005.5
20260902121510 89 350 7.0 15.0 0.00 0.00 0.00 59 1005.3
20260902121005 90 342 10.0 13.0 0.00 0.00 0.00 58 1005.6
20260902120502 89 281 7.0 13.0 0.00 0.00 0.00 61 1005.6
20260902120001 90 266 12.0 16.0 0.00 0.00 0.00 60 1005.6
20260902115457 89 354 4.0 8.0 0.00 0.00 0.00 59 1005.3
20260902114954 89 316 9.0 11.0 0.00 0.00 0.00 59 1005.6
20260902114449 89 299 10.0 15.0 0.00 0.00 0.00 59 1005.5
20260902113944 89 274 7.0 16.0 0.00 0.00 0.00 60 1005.7
20260902113440 89 31 5.0 16.0 0.00 0.00 0.00 59 1005.5